Location: Unspecified
(0.0000°N, 0.0000°E)
Time: 08:20:24
(UTC+01:00)

PROBA 2 - Visible Passes

Search period start: 29 November 2014 00:00
Search period end: 09 December 2014 00:00
Orbit: 708 x 725 km, 98.3° (Epoch: 28 November)

Date Brightness Start Highest point End Pass type
(mag) Time Alt. Az. Time Alt. Az. Time Alt. Az.
29 Nov ? 19:32:03 10° N 19:36:50 60° WNW 19:41:37 10° SSW visible
30 Nov ? 06:20:08 10° ESE 06:22:38 14° ENE 06:25:07 10° NE visible
30 Nov ? 20:21:13 10° NW 20:23:53 15° WNW 20:26:33 10° WSW visible
01 Dec ? 19:28:24 10° N 19:33:12 68° WNW 19:38:01 10° SSW visible
02 Dec ? 06:16:59 10° ESE 06:19:01 13° ENE 06:21:02 10° NE visible
02 Dec ? 20:17:15 10° NW 20:20:16 17° WNW 20:23:16 10° WSW visible
03 Dec ? 19:24:45 10° N 19:29:35 76° WNW 19:34:25 10° SSW visible
04 Dec ? 06:14:00 10° E 06:15:23 11° ENE 06:16:46 10° ENE visible
04 Dec ? 20:13:21 10° NW 20:16:38 18° WNW 20:19:56 10° WSW visible
05 Dec ? 19:21:07 10° N 19:25:57 84° WNW 19:30:48 10° SSW visible
06 Dec ? 20:09:29 10° NNW 20:13:01 20° WNW 20:16:33 10° SW visible
07 Dec ? 19:17:29 10° NNE 19:22:19 87° ESE 19:27:10 10° S visible
08 Dec ? 20:05:38 10° NNW 20:09:23 23° WNW 20:13:08 10° SW visible
